BOV634 SLCB-SLVR

Flight info

Callsign BOV634
Flight time 0h 36m
Altitude 27000
Route VAREB UW677 SANSO
Aircraft B738/M-MDGHILORVWY/SB1

Departure

Time 2026-04-30 11:11
Airport Jorge Wilsterman International Airport (SLCB)

Arrival

Time 2026-04-30 11:48
Airport Viru Viru International Airport (SLVR)
Time Latitude Longitude Altitude Speed Heading
2026-04-30 10:47 -17.41463 -66.17969 8361 ft 0 kts 44°
2026-04-30 10:59 -17.41471 -66.17978 8361 ft 2 kts 44°
2026-04-30 11:00 -17.41483 -66.17990 8361 ft 2 kts 44°
2026-04-30 11:00 -17.41494 -66.18002 8361 ft 2 kts 46°
2026-04-30 11:00 -17.41504 -66.18015 8360 ft 2 kts 80°
2026-04-30 11:00 -17.41503 -66.18027 8360 ft 1 kts 133°
2026-04-30 11:01 -17.41500 -66.18031 8360 ft 0 kts 137°
2026-04-30 11:04 -17.41512 -66.18019 8361 ft 5 kts 136°
2026-04-30 11:04 -17.41544 -66.17982 8360 ft 9 kts 130°
2026-04-30 11:05 -17.41592 -66.17927 8361 ft 12 kts 139°
2026-04-30 11:05 -17.41668 -66.17930 8360 ft 12 kts 194°
2026-04-30 11:05 -17.41733 -66.17889 8360 ft 11 kts 133°
2026-04-30 11:05 -17.41786 -66.17829 8360 ft 11 kts 133°
2026-04-30 11:06 -17.41844 -66.17760 8360 ft 16 kts 131°
2026-04-30 11:06 -17.41931 -66.17660 8361 ft 21 kts 132°
2026-04-30 11:06 -17.42026 -66.17552 8361 ft 20 kts 130°
2026-04-30 11:06 -17.42116 -66.17445 8361 ft 19 kts 133°
2026-04-30 11:07 -17.42204 -66.17342 8360 ft 19 kts 132°
2026-04-30 11:07 -17.42300 -66.17231 8360 ft 24 kts 132°
2026-04-30 11:07 -17.42411 -66.17101 8360 ft 23 kts 132°
2026-04-30 11:07 -17.42498 -66.17000 8360 ft 13 kts 134°
2026-04-30 11:08 -17.42574 -66.17007 8359 ft 12 kts 221°
2026-04-30 11:08 -17.42645 -66.17055 8360 ft 12 kts 189°
2026-04-30 11:08 -17.42714 -66.17011 8360 ft 12 kts 133°
2026-04-30 11:08 -17.42767 -66.16947 8360 ft 12 kts 131°
2026-04-30 11:09 -17.42828 -66.16875 8361 ft 14 kts 132°
2026-04-30 11:09 -17.42895 -66.16801 8362 ft 15 kts 132°
2026-04-30 11:09 -17.42967 -66.16716 8362 ft 16 kts 133°
2026-04-30 11:09 -17.43049 -66.16622 8362 ft 19 kts 131°
2026-04-30 11:10 -17.43132 -66.16511 8362 ft 20 kts 117°
2026-04-30 11:10 -17.43184 -66.16457 8361 ft 2 kts 213°
2026-04-30 11:10 -17.43179 -66.16469 8361 ft 2 kts 310°
2026-04-30 11:10 -17.43128 -66.16529 8362 ft 37 kts 312°
2026-04-30 11:11 -17.42798 -66.16914 8360 ft 104 kts 312°
2026-04-30 11:11 -17.42178 -66.17633 8362 ft 160 kts 312°
2026-04-30 11:11 -17.41330 -66.18619 8522 ft 195 kts 311°
2026-04-30 11:11 -17.40396 -66.19686 9117 ft 206 kts 313°
2026-04-30 11:12 -17.39413 -66.20828 9772 ft 205 kts 311°
2026-04-30 11:12 -17.38524 -66.21922 10761 ft 190 kts 309°
2026-04-30 11:12 -17.37682 -66.22986 11516 ft 192 kts 310°
2026-04-30 11:12 -17.36971 -66.24236 11749 ft 214 kts 279°
2026-04-30 11:13 -17.37266 -66.25805 11933 ft 236 kts 242°
2026-04-30 11:13 -17.38468 -66.27088 12074 ft 263 kts 210°
2026-04-30 11:13 -17.40299 -66.27560 12224 ft 287 kts 176°
2026-04-30 11:13 -17.42253 -66.26865 12394 ft 313 kts 143°
2026-04-30 11:14 -17.43652 -66.25091 12896 ft 324 kts 111°
2026-04-30 11:14 -17.44021 -66.22788 13600 ft 324 kts 82°
2026-04-30 11:14 -17.43493 -66.20527 14403 ft 323 kts 72°
2026-04-30 11:14 -17.42966 -66.18223 15146 ft 329 kts 78°
2026-04-30 11:15 -17.42519 -66.15851 15859 ft 334 kts 81°
2026-04-30 11:15 -17.42394 -66.13408 16586 ft 338 kts 89°
2026-04-30 11:15 -17.42499 -66.10930 17325 ft 342 kts 92°
2026-04-30 11:15 -17.42681 -66.08435 18034 ft 346 kts 93°
2026-04-30 11:16 -17.42883 -66.05910 18704 ft 350 kts 93°
2026-04-30 11:16 -17.43084 -66.03359 19350 ft 354 kts 93°
2026-04-30 11:16 -17.43279 -66.00769 19970 ft 358 kts 93°
2026-04-30 11:16 -17.43469 -65.98155 20579 ft 363 kts 92°
2026-04-30 11:17 -17.43654 -65.95535 21188 ft 367 kts 92°
2026-04-30 11:17 -17.43839 -65.92857 21796 ft 370 kts 92°
2026-04-30 11:17 -17.44023 -65.90155 22358 ft 375 kts 92°
2026-04-30 11:17 -17.44209 -65.87418 22908 ft 379 kts 92°
2026-04-30 11:18 -17.44395 -65.84653 23455 ft 382 kts 92°
2026-04-30 11:18 -17.44767 -65.79105 24457 ft 389 kts 92°
2026-04-30 11:18 -17.44957 -65.76266 24917 ft 393 kts 92°
2026-04-30 11:19 -17.45148 -65.73391 25372 ft 398 kts 92°
2026-04-30 11:19 -17.45342 -65.70483 25840 ft 402 kts 92°
2026-04-30 11:19 -17.45537 -65.67553 26280 ft 405 kts 92°
2026-04-30 11:19 -17.45733 -65.64595 26742 ft 409 kts 92°
2026-04-30 11:20 -17.45932 -65.61608 27193 ft 412 kts 92°
2026-04-30 11:20 -17.46130 -65.58611 27343 ft 410 kts 92°
2026-04-30 11:20 -17.46324 -65.55684 27344 ft 405 kts 91°
2026-04-30 11:20 -17.46517 -65.52740 27347 ft 406 kts 92°
2026-04-30 11:21 -17.46714 -65.49786 27354 ft 407 kts 92°
2026-04-30 11:21 -17.46913 -65.46820 27363 ft 408 kts 91°
2026-04-30 11:21 -17.47112 -65.43850 27364 ft 409 kts 91°
2026-04-30 11:21 -17.47311 -65.40875 27373 ft 410 kts 91°
2026-04-30 11:22 -17.47509 -65.37888 27363 ft 410 kts 91°
2026-04-30 11:22 -17.47706 -65.34914 27353 ft 410 kts 92°
2026-04-30 11:22 -17.47909 -65.31932 27362 ft 409 kts 92°
2026-04-30 11:22 -17.48116 -65.28960 27354 ft 409 kts 92°
2026-04-30 11:23 -17.48324 -65.25991 27352 ft 408 kts 92°
2026-04-30 11:23 -17.48532 -65.23033 27352 ft 407 kts 92°
2026-04-30 11:23 -17.48942 -65.17141 27354 ft 405 kts 92°
2026-04-30 11:24 -17.49145 -65.14200 27355 ft 404 kts 92°
2026-04-30 11:24 -17.49344 -65.11302 27355 ft 404 kts 92°
2026-04-30 11:24 -17.49545 -65.08369 27300 ft 404 kts 92°
2026-04-30 11:25 -17.49946 -65.02523 27271 ft 398 kts 91°
2026-04-30 11:25 -17.50143 -64.99650 27261 ft 394 kts 91°
2026-04-30 11:25 -17.50532 -64.93908 27223 ft 396 kts 91°
2026-04-30 11:26 -17.50922 -64.88164 26611 ft 393 kts 91°
2026-04-30 11:26 -17.51115 -64.85315 26233 ft 391 kts 92°
2026-04-30 11:26 -17.51306 -64.82479 25865 ft 388 kts 92°
2026-04-30 11:27 -17.51494 -64.79669 25488 ft 386 kts 92°
2026-04-30 11:27 -17.51682 -64.76870 25104 ft 384 kts 92°
2026-04-30 11:27 -17.51868 -64.74091 24740 ft 381 kts 92°
2026-04-30 11:27 -17.52053 -64.71329 24358 ft 379 kts 92°
2026-04-30 11:28 -17.52416 -64.65855 23612 ft 374 kts 92°
2026-04-30 11:28 -17.52594 -64.63172 23252 ft 372 kts 92°
2026-04-30 11:28 -17.52772 -64.60483 22879 ft 370 kts 92°
2026-04-30 11:29 -17.52950 -64.57794 22514 ft 368 kts 92°
2026-04-30 11:29 -17.53126 -64.55131 22146 ft 365 kts 92°
2026-04-30 11:29 -17.53236 -64.49886 21573 ft 355 kts 88°
2026-04-30 11:30 -17.53134 -64.44765 20889 ft 349 kts 87°
2026-04-30 11:30 -17.53081 -64.42235 20541 ft 347 kts 87°
2026-04-30 11:30 -17.53033 -64.39708 20185 ft 346 kts 87°
2026-04-30 11:31 -17.52989 -64.37193 19823 ft 344 kts 88°
2026-04-30 11:31 -17.52950 -64.34699 19472 ft 342 kts 88°
2026-04-30 11:31 -17.52912 -64.32205 19108 ft 341 kts 88°
2026-04-30 11:31 -17.52876 -64.29727 18761 ft 340 kts 88°
2026-04-30 11:32 -17.52840 -64.27257 18404 ft 338 kts 88°
2026-04-30 11:32 -17.52805 -64.24832 18055 ft 336 kts 88°
2026-04-30 11:32 -17.52769 -64.22359 17693 ft 334 kts 88°
2026-04-30 11:33 -17.52700 -64.17540 17002 ft 331 kts 87°
2026-04-30 11:33 -17.52664 -64.15139 16655 ft 329 kts 87°
2026-04-30 11:33 -17.52629 -64.12750 16314 ft 327 kts 87°
2026-04-30 11:33 -17.52592 -64.10369 15969 ft 326 kts 87°
2026-04-30 11:34 -17.52556 -64.07991 15619 ft 325 kts 87°
2026-04-30 11:34 -17.52520 -64.05623 15272 ft 325 kts 87°
2026-04-30 11:34 -17.52484 -64.03261 14924 ft 324 kts 86°
2026-04-30 11:34 -17.52447 -64.00906 14582 ft 323 kts 86°
2026-04-30 11:35 -17.52410 -63.98560 14237 ft 322 kts 86°
2026-04-30 11:35 -17.52374 -63.96214 13889 ft 321 kts 86°
2026-04-30 11:35 -17.52338 -63.93875 13540 ft 320 kts 86°
2026-04-30 11:35 -17.52301 -63.91546 13194 ft 319 kts 86°
2026-04-30 11:36 -17.52264 -63.89232 12860 ft 317 kts 86°
2026-04-30 11:36 -17.52226 -63.86923 12514 ft 317 kts 86°
2026-04-30 11:36 -17.52189 -63.84619 12175 ft 316 kts 86°
2026-04-30 11:36 -17.52149 -63.82324 11833 ft 315 kts 85°
2026-04-30 11:37 -17.52110 -63.80032 11496 ft 315 kts 86°
2026-04-30 11:37 -17.52073 -63.77740 11162 ft 314 kts 86°
2026-04-30 11:37 -17.52036 -63.75489 10805 ft 313 kts 86°
2026-04-30 11:37 -17.51998 -63.73214 10469 ft 312 kts 86°
2026-04-30 11:38 -17.51960 -63.70954 10189 ft 308 kts 86°
2026-04-30 11:38 -17.51924 -63.68738 10003 ft 302 kts 86°
2026-04-30 11:38 -17.51886 -63.66540 9679 ft 301 kts 86°
2026-04-30 11:38 -17.51848 -63.64347 9365 ft 300 kts 86°
2026-04-30 11:39 -17.51810 -63.62167 9053 ft 299 kts 86°
2026-04-30 11:39 -17.51772 -63.59992 8739 ft 298 kts 86°
2026-04-30 11:39 -17.51734 -63.57826 8424 ft 297 kts 86°
2026-04-30 11:39 -17.51695 -63.55669 8115 ft 296 kts 87°
2026-04-30 11:40 -17.51657 -63.53516 7802 ft 294 kts 87°
2026-04-30 11:40 -17.51623 -63.51632 7529 ft 294 kts 87°
2026-04-30 11:40 -17.51585 -63.49494 7218 ft 292 kts 87°
2026-04-30 11:40 -17.51546 -63.47372 6907 ft 291 kts 87°
2026-04-30 11:41 -17.51508 -63.45259 6601 ft 290 kts 88°
2026-04-30 11:41 -17.51470 -63.43154 6296 ft 288 kts 88°
2026-04-30 11:41 -17.51444 -63.41772 6101 ft 287 kts 88°
2026-04-30 11:41 -17.51393 -63.39012 5682 ft 286 kts 88°
2026-04-30 11:42 -17.51354 -63.36936 5417 ft 283 kts 88°
2026-04-30 11:42 -17.51316 -63.34888 5127 ft 281 kts 88°
2026-04-30 11:42 -17.51135 -63.32881 4994 ft 272 kts 78°
2026-04-30 11:42 -17.50858 -63.31591 4927 ft 266 kts 76°
2026-04-30 11:43 -17.50289 -63.29193 4831 ft 246 kts 76°
2026-04-30 11:43 -17.50022 -63.28040 4748 ft 236 kts 76°
2026-04-30 11:43 -17.49658 -63.26433 4648 ft 223 kts 77°
2026-04-30 11:43 -17.49424 -63.24880 4511 ft 212 kts 96°
2026-04-30 11:44 -17.49958 -63.23490 4309 ft 209 kts 130°
2026-04-30 11:44 -17.51050 -63.22506 4037 ft 205 kts 147°
2026-04-30 11:44 -17.52235 -63.21710 3772 ft 200 kts 149°
2026-04-30 11:44 -17.53395 -63.20948 3495 ft 194 kts 149°
2026-04-30 11:45 -17.54520 -63.20205 3230 ft 189 kts 149°
2026-04-30 11:45 -17.55612 -63.19480 2990 ft 182 kts 149°
2026-04-30 11:45 -17.56629 -63.18803 2899 ft 163 kts 149°
2026-04-30 11:45 -17.57594 -63.18161 2556 ft 161 kts 149°
2026-04-30 11:46 -17.58503 -63.17553 2339 ft 150 kts 148°
2026-04-30 11:46 -17.59365 -63.16974 2149 ft 147 kts 148°
2026-04-30 11:46 -17.60225 -63.16394 1955 ft 146 kts 148°
2026-04-30 11:46 -17.61074 -63.15825 1776 ft 144 kts 148°
2026-04-30 11:47 -17.61918 -63.15257 1581 ft 145 kts 148°
2026-04-30 11:47 -17.62776 -63.14675 1345 ft 148 kts 147°
2026-04-30 11:47 -17.63634 -63.14101 1233 ft 140 kts 147°
2026-04-30 11:47 -17.64347 -63.13623 1230 ft 103 kts 148°
2026-04-30 11:48 -17.64822 -63.13305 1231 ft 59 kts 147°
2026-04-30 11:48 -17.65033 -63.13163 1230 ft 14 kts 147°
2026-04-30 11:48 -17.65096 -63.13161 1230 ft 9 kts 223°
2026-04-30 11:48 -17.65131 -63.13216 1230 ft 9 kts 237°
2026-04-30 11:49 -17.65163 -63.13272 1230 ft 9 kts 247°
2026-04-30 11:49 -17.65139 -63.13325 1230 ft 9 kts 324°
2026-04-30 11:49 -17.65089 -63.13359 1230 ft 8 kts 327°
2026-04-30 11:49 -17.65040 -63.13392 1230 ft 8 kts 328°
2026-04-30 11:50 -17.64993 -63.13424 1230 ft 8 kts 326°
2026-04-30 11:50 -17.64944 -63.13457 1230 ft 9 kts 327°
2026-04-30 11:50 -17.64891 -63.13492 1230 ft 10 kts 328°
2026-04-30 11:50 -17.64828 -63.13535 1230 ft 12 kts 328°
2026-04-30 11:51 -17.64800 -63.13607 1230 ft 12 kts 244°
2026-04-30 11:51 -17.64844 -63.13682 1230 ft 12 kts 237°
2026-04-30 11:51 -17.64885 -63.13756 1230 ft 12 kts 256°
2026-04-30 11:51 -17.64842 -63.13818 1230 ft 11 kts 331°
2026-04-30 11:52 -17.64779 -63.13864 1230 ft 11 kts 307°
2026-04-30 11:52 -17.64779 -63.13891 1230 ft 4 kts 245°
2026-04-30 11:52 -17.64800 -63.13928 1230 ft 7 kts 238°
2026-04-30 11:52 -17.64809 -63.13943 1230 ft 0 kts 238°